This is the latest recevied weather packets stored in our database for station/object PY3MO-13. If no packets are shown the sender has not sent any weather packets the latest 10 day(s).
| Time | Temp. | Humidity | Pressure | Rain* | Wind** | Luminosity | Snow |
|---|---|---|---|---|---|---|---|
| 1778272507 | 15° C | 51% | 1007.7 hPa | 0 mm | - | - | - |
| 1778272206 | 15° C | 50% | 1007.7 hPa | 0 mm | - | - | - |
| 1778271908 | 15.56° C | 50% | 1007.5 hPa | 0 mm | - | - | - |
| 1778271607 | 16.11° C | 48% | 1007.7 hPa | 0 mm | - | - | - |
| 1778271307 | 16.67° C | 47% | 1007.4 hPa | 0 mm | - | - | - |
| 1778271007 | 17.22° C | 48% | 1007.5 hPa | 0 mm | - | - | - |
| 1778270706 | 17.22° C | 47% | 1007.4 hPa | 0 mm | - | - | - |
| 1778270406 | 17.78° C | 42% | 1007.4 hPa | 0 mm | - | - | - |
| 1778270107 | 17.78° C | 42% | 1007.4 hPa | 0 mm | - | - | - |
| 1778269806 | 17.78° C | 42% | 1007.5 hPa | 0 mm | - | - | - |
| 1778269507 | 18.33° C | 43% | 1007.4 hPa | 0 mm | - | - | - |
| 1778269207 | 17.78° C | 43% | 1007.5 hPa | 0 mm | - | - | - |
| 1778268907 | 17.78° C | 42% | 1007.4 hPa | 0 mm | - | - | - |
| 1778268606 | 17.78° C | 41% | 1007.5 hPa | 0 mm | - | - | - |
| 1778268308 | 18.33° C | 40% | 1007.3 hPa | 0 mm | - | - | - |
| 1778268007 | 18.33° C | 40% | 1007.6 hPa | 0 mm | - | - | - |
| 1778267706 | 18.33° C | 39% | 1007.4 hPa | 0 mm | - | - | - |
| 1778267406 | 18.33° C | 40% | 1007.4 hPa | 0 mm | - | - | - |
| 1778267107 | 18.33° C | 40% | 1007.2 hPa | 0 mm | - | - | - |
| 1778266807 | 18.33° C | 40% | 1007.2 hPa | 0 mm | - | - | - |
| 1778266506 | 18.33° C | 40% | 1007.3 hPa | 0 mm | - | - | - |
| 1778266206 | 18.33° C | 40% | 1007 hPa | 0 mm | - | - | - |
| 1778265907 | 18.33° C | 40% | 1007.1 hPa | 0 mm | - | - | - |
| 1778265607 | 18.89° C | 41% | 1006.9 hPa | 0 mm | - | - | - |
| 1778265306 | 18.33° C | 41% | 1007 hPa | 0 mm | - | - | - |
* Rain latest hour (hover to see other rain measurements)
** Current wind speed in m/s (hover to see current wind gust speed)